Time,TemperatureF,DewpointF,PressureIn,WindDirection,WindDirectionDegrees,WindSpeedMPH,WindSpeedGustMPH,Humidity,HourlyPrecipIn,Conditions,Clouds,dailyrainin,SoftwareType,DateUTC
2013-10-20 00:00:00,37.4,14.7,29.71,SSW,208,0.0,0.0,39,0.00,,---,0.00,VWS V14.01,2013-10-20 04:00:00,
2013-10-20 00:01:00,37.4,14.7,29.71,NE,36,2.7,2.7,39,0.00,,---,0.00,VWS V14.01,2013-10-20 04:01:00,
2013-10-20 00:06:00,37.6,14.9,29.71,WNW,298,3.1,3.1,39,0.00,,---,0.00,VWS V14.01,2013-10-20 04:06:00,
2013-10-20 00:11:00,37.9,15.2,29.71,NE,50,0.0,0.0,39,0.00,,---,0.00,VWS V14.01,2013-10-20 04:11:00,
2013-10-20 00:16:00,37.9,15.2,29.71,SW,236,0.0,0.0,39,0.00,,---,0.00,VWS V14.01,2013-10-20 04:16:00,
2013-10-20 00:21:00,37.9,15.2,29.71,North,353,0.0,0.0,39,0.00,,---,0.00,VWS V14.01,2013-10-20 04:21:00,
2013-10-20 00:26:00,37.9,15.2,29.71,SE,124,2.7,2.7,39,0.00,,---,0.00,VWS V14.01,2013-10-20 04:26:00,
2013-10-20 00:31:00,38.1,15.4,29.71,WNW,295,0.0,2.7,39,0.00,,---,0.00,VWS V14.01,2013-10-20 04:31:00,
2013-10-20 00:36:00,38.3,15.5,29.71,West,264,0.0,0.0,39,0.00,,---,0.00,VWS V14.01,2013-10-20 04:36:00,
2013-10-20 00:41:00,38.5,15.7,29.71,East,83,0.0,0.0,39,0.00,,---,0.00,VWS V14.01,2013-10-20 04:41:00,
2013-10-20 00:46:00,38.5,15.7,29.71,SW,231,3.1,3.6,39,0.00,,---,0.00,VWS V14.01,2013-10-20 04:46:00,
2013-10-20 00:51:00,38.5,15.7,29.71,SW,222,8.3,8.3,39,0.00,,---,0.00,VWS V14.01,2013-10-20 04:51:00,
2013-10-20 00:56:00,38.3,15.5,29.71,North,9,7.6,7.6,39,0.00,,---,0.00,VWS V14.01,2013-10-20 04:56:00,
2013-10-20 01:01:00,38.3,15.5,29.71,NE,48,2.7,5.8,39,0.00,,---,0.00,VWS V14.01,2013-10-20 05:01:00,
2013-10-20 01:06:00,38.3,15.5,29.71,WNW,293,3.1,3.1,39,0.00,,---,0.00,VWS V14.01,2013-10-20 05:06:00,
2013-10-20 01:11:00,38.1,15.4,29.71,SSW,210,3.6,3.6,39,0.00,,---,0.00,VWS V14.01,2013-10-20 05:11:00,
2013-10-20 01:16:00,38.1,15.4,29.71,WNW,284,0.0,0.0,39,0.00,,---,0.00,VWS V14.01,2013-10-20 05:16:00,
2013-10-20 01:21:00,38.3,15.5,29.71,West,273,2.7,5.4,39,0.00,,---,0.00,VWS V14.01,2013-10-20 05:21:00,
2013-10-20 01:26:00,38.3,15.5,29.71,West,275,3.1,3.1,39,0.00,,---,0.00,VWS V14.01,2013-10-20 05:26:00,
2013-10-20 01:31:00,38.3,15.5,29.71,WNW,298,2.2,3.1,39,0.00,,---,0.00,VWS V14.01,2013-10-20 05:31:00,
2013-10-20 01:36:00,38.5,15.7,29.71,South,187,0.0,0.0,39,0.00,,---,0.00,VWS V14.01,2013-10-20 05:36:00,
2013-10-20 01:41:00,38.1,15.4,29.71,North,0,0.0,0.0,39,0.00,,---,0.00,VWS V14.01,2013-10-20 05:41:00,
2013-10-20 01:46:00,37.9,15.2,29.71,SW,231,3.1,3.1,39,0.00,,---,0.00,VWS V14.01,2013-10-20 05:46:00,
2013-10-20 01:51:00,37.9,15.2,29.71,WNW,293,0.0,0.0,39,0.00,,---,0.00,VWS V14.01,2013-10-20 05:51:00,
2013-10-20 01:56:00,37.8,15.0,29.71,NW,318,2.2,2.2,39,0.00,,---,0.00,VWS V14.01,2013-10-20 05:56:00,
2013-10-20 02:01:00,37.9,15.2,29.71,WSW,248,0.0,0.0,39,0.00,,---,0.00,VWS V14.01,2013-10-20 06:01:00,
2013-10-20 02:06:00,37.8,15.0,29.71,NNW,343,5.4,5.4,39,0.00,,---,0.00,VWS V14.01,2013-10-20 06:06:00,
2013-10-20 02:11:00,37.8,15.0,29.71,West,281,2.7,3.6,39,0.00,,---,0.00,VWS V14.01,2013-10-20 06:11:00,
2013-10-20 02:16:00,37.8,15.0,29.71,WSW,239,2.7,2.7,39,0.00,,---,0.00,VWS V14.01,2013-10-20 06:16:00,
2013-10-20 02:21:00,37.6,14.9,29.71,WSW,249,4.0,4.9,39,0.00,,---,0.00,VWS V14.01,2013-10-20 06:21:00,
2013-10-20 02:26:00,37.4,14.7,29.71,North,10,3.1,3.1,39,0.00,,---,0.00,VWS V14.01,2013-10-20 06:26:00,
2013-10-20 02:31:00,37.6,14.9,29.71,NW,317,0.0,0.0,39,0.00,,---,0.00,VWS V14.01,2013-10-20 06:31:00,
2013-10-20 02:36:00,37.6,14.9,29.71,NW,317,0.0,0.0,39,0.00,,---,0.00,VWS V14.01,2013-10-20 06:36:00,
2013-10-20 02:41:00,37.6,14.9,29.71,West,260,0.0,0.0,39,0.00,,---,0.00,VWS V14.01,2013-10-20 06:41:00,
2013-10-20 02:46:00,37.6,14.9,29.71,WNW,285,0.0,4.0,39,0.00,,---,0.00,VWS V14.01,2013-10-20 06:46:00,
2013-10-20 02:51:00,37.6,14.9,29.71,West,280,0.0,2.2,39,0.00,,---,0.00,VWS V14.01,2013-10-20 06:51:00,
2013-10-20 02:56:00,37.6,14.9,29.71,NNW,344,0.0,2.7,39,0.00,,---,0.00,VWS V14.01,2013-10-20 06:56:00,
2013-10-20 03:01:00,37.6,14.9,29.71,SW,219,0.0,3.1,39,0.00,,---,0.00,VWS V14.01,2013-10-20 07:01:00,
2013-10-20 03:06:00,37.4,14.7,29.71,SE,145,2.7,3.1,39,0.00,,---,0.00,VWS V14.01,2013-10-20 07:06:00,
2013-10-20 03:11:00,37.0,15.0,29.71,WNW,288,0.0,3.6,40,0.00,,---,0.00,VWS V14.01,2013-10-20 07:11:00,
2013-10-20 03:16:00,36.9,14.8,29.71,ENE,70,0.0,0.0,40,0.00,,---,0.00,VWS V14.01,2013-10-20 07:16:00,
2013-10-20 03:21:00,36.7,14.6,29.71,ENE,70,0.0,0.0,40,0.00,,---,0.00,VWS V14.01,2013-10-20 07:21:00,
2013-10-20 03:26:00,36.7,14.6,29.71,ENE,70,0.0,0.0,40,0.00,,---,0.00,VWS V14.01,2013-10-20 07:26:00,
2013-10-20 03:31:00,36.5,14.5,29.71,WNW,292,0.0,2.7,40,0.00,,---,0.00,VWS V14.01,2013-10-20 07:31:00,
2013-10-20 03:36:00,36.5,14.5,29.71,WNW,292,0.0,0.0,40,0.00,,---,0.00,VWS V14.01,2013-10-20 07:36:00,
2013-10-20 03:41:00,36.3,14.3,29.71,NNW,332,0.0,0.0,40,0.00,,---,0.00,VWS V14.01,2013-10-20 07:41:00,
2013-10-20 03:46:00,36.1,14.2,29.71,NNW,332,0.0,0.0,40,0.00,,---,0.00,VWS V14.01,2013-10-20 07:46:00,
2013-10-20 03:51:00,36.1,14.2,29.71,NW,308,0.0,0.0,40,0.00,,---,0.00,VWS V14.01,2013-10-20 07:51:00,
2013-10-20 03:56:00,36.1,14.2,29.71,NW,308,0.0,0.0,40,0.00,,---,0.00,VWS V14.01,2013-10-20 07:56:00,
2013-10-20 04:01:00,36.0,14.0,29.71,NW,308,0.0,0.0,40,0.00,,---,0.00,VWS V14.01,2013-10-20 08:01:00,
2013-10-20 04:06:00,36.1,14.2,29.71,West,262,2.2,4.0,40,0.00,,---,0.00,VWS V14.01,2013-10-20 08:06:00,
2013-10-20 04:11:00,36.1,14.2,29.71,NNW,343,0.0,0.0,40,0.00,,---,0.00,VWS V14.01,2013-10-20 08:11:00,
2013-10-20 04:16:00,36.1,14.2,29.71,NNE,15,0.0,0.0,40,0.00,,---,0.00,VWS V14.01,2013-10-20 08:16:00,
2013-10-20 04:21:00,36.1,14.2,29.71,North,2,0.0,0.0,40,0.00,,---,0.00,VWS V14.01,2013-10-20 08:21:00,
2013-10-20 04:26:00,36.1,14.2,29.71,SSW,210,0.0,0.0,40,0.00,,---,0.00,VWS V14.01,2013-10-20 08:26:00,
2013-10-20 04:31:00,36.1,14.2,29.71,North,349,0.0,0.0,40,0.00,,---,0.00,VWS V14.01,2013-10-20 08:31:00,
2013-10-20 04:36:00,36.0,14.0,29.71,North,353,0.0,0.0,40,0.00,,---,0.00,VWS V14.01,2013-10-20 08:36:00,
2013-10-20 04:41:00,36.0,14.0,29.71,North,353,0.0,0.0,40,0.00,,---,0.00,VWS V14.01,2013-10-20 08:41:00,
2013-10-20 04:46:00,36.0,14.0,29.71,WNW,285,0.0,3.1,40,0.00,,---,0.00,VWS V14.01,2013-10-20 08:46:00,
2013-10-20 04:51:00,36.0,14.0,29.71,SW,217,0.0,0.0,40,0.00,,---,0.00,VWS V14.01,2013-10-20 08:51:00,
2013-10-20 04:56:00,36.0,14.0,29.71,WSW,245,0.0,3.1,40,0.00,,---,0.00,VWS V14.01,2013-10-20 08:56:00,
2013-10-20 05:01:00,36.0,14.0,29.74,NNW,341,0.0,0.0,40,0.00,,---,0.00,VWS V14.01,2013-10-20 09:01:00,
2013-10-20 05:06:00,35.8,13.8,29.74,West,266,0.0,0.0,40,0.00,,---,0.00,VWS V14.01,2013-10-20 09:06:00,
2013-10-20 05:11:00,35.8,13.8,29.74,SW,231,0.0,0.0,40,0.00,,---,0.00,VWS V14.01,2013-10-20 09:11:00,
2013-10-20 05:16:00,35.6,13.7,29.74,SW,231,0.0,0.0,40,0.00,,---,0.00,VWS V14.01,2013-10-20 09:16:00,
2013-10-20 05:21:00,35.6,13.7,29.74,SSE,152,2.7,2.7,40,0.00,,---,0.00,VWS V14.01,2013-10-20 09:21:00,
2013-10-20 05:26:00,35.6,13.7,29.74,North,11,0.0,4.0,40,0.00,,---,0.00,VWS V14.01,2013-10-20 09:26:00,
2013-10-20 05:31:00,35.6,13.7,29.74,North,11,0.0,0.0,40,0.00,,---,0.00,VWS V14.01,2013-10-20 09:31:00,
2013-10-20 05:36:00,35.6,13.7,29.74,North,11,0.0,0.0,40,0.00,,---,0.00,VWS V14.01,2013-10-20 09:36:00,
2013-10-20 05:41:00,35.6,13.7,29.74,North,11,0.0,0.0,40,0.00,,---,0.00,VWS V14.01,2013-10-20 09:41:00,
2013-10-20 05:46:00,35.6,13.7,29.74,NNW,335,0.0,0.0,40,0.00,,---,0.00,VWS V14.01,2013-10-20 09:46:00,
2013-10-20 05:51:00,35.4,13.5,29.74,NNW,335,0.0,0.0,40,0.00,,---,0.00,VWS V14.01,2013-10-20 09:51:00,
2013-10-20 05:55:00,35.6,13.7,29.74,NNW,335,0.0,0.0,40,0.00,,---,0.00,VWS V14.01,2013-10-20 09:55:00,
2013-10-20 06:00:00,35.4,13.5,29.74,NNW,335,0.0,0.0,40,0.00,,---,0.00,VWS V14.01,2013-10-20 10:00:00,
2013-10-20 06:05:00,35.4,13.5,29.74,NNW,335,0.0,0.0,40,0.00,,---,0.00,VWS V14.01,2013-10-20 10:05:00,
2013-10-20 06:10:00,35.4,13.5,29.74,NNW,335,0.0,0.0,40,0.00,,---,0.00,VWS V14.01,2013-10-20 10:10:00,
2013-10-20 06:15:00,35.6,13.7,29.74,West,265,0.0,2.2,40,0.00,,---,0.00,VWS V14.01,2013-10-20 10:15:00,
2013-10-20 06:20:00,35.6,13.7,29.74,West,265,0.0,0.0,40,0.00,,---,0.00,VWS V14.01,2013-10-20 10:20:00,
2013-10-20 06:25:00,35.6,13.7,29.74,West,271,0.0,0.0,40,0.00,,---,0.00,VWS V14.01,2013-10-20 10:25:00,
2013-10-20 06:30:00,35.8,13.8,29.74,West,271,0.0,0.0,40,0.00,,---,0.00,VWS V14.01,2013-10-20 10:30:00,
2013-10-20 06:35:00,35.8,13.8,29.74,West,270,0.0,0.0,40,0.00,,---,0.00,VWS V14.01,2013-10-20 10:35:00,
2013-10-20 06:40:00,36.1,14.2,29.74,NW,324,0.0,0.0,40,0.00,,---,0.00,VWS V14.01,2013-10-20 10:40:00,
2013-10-20 06:45:00,36.1,14.2,29.74,West,271,0.0,0.0,40,0.00,,---,0.00,VWS V14.01,2013-10-20 10:45:00,
2013-10-20 06:50:00,36.1,14.2,29.74,North,0,0.0,0.0,40,0.00,,---,0.00,VWS V14.01,2013-10-20 10:50:00,
2013-10-20 06:55:00,36.1,14.2,29.74,WSW,241,0.0,0.0,40,0.00,,---,0.00,VWS V14.01,2013-10-20 10:55:00,
2013-10-20 07:00:00,36.1,14.2,29.74,WSW,257,0.0,4.9,40,0.00,,---,0.00,VWS V14.01,2013-10-20 11:00:00,
2013-10-20 07:05:00,36.1,14.2,29.74,NNW,330,0.0,0.0,40,0.00,,---,0.00,VWS V14.01,2013-10-20 11:05:00,
2013-10-20 07:10:00,36.1,14.2,29.74,SSW,205,2.2,5.4,40,0.00,,---,0.00,VWS V14.01,2013-10-20 11:10:00,
2013-10-20 07:15:00,36.1,14.2,29.74,SSW,206,0.0,0.0,40,0.00,,---,0.00,VWS V14.01,2013-10-20 11:15:00,
2013-10-20 07:20:00,36.1,14.2,29.74,West,261,0.0,0.0,40,0.00,,---,0.00,VWS V14.01,2013-10-20 11:20:00,
2013-10-20 07:25:00,36.1,14.2,29.74,West,261,0.0,0.0,40,0.00,,---,0.00,VWS V14.01,2013-10-20 11:25:00,
2013-10-20 07:30:00,36.0,14.0,29.74,WSW,247,0.0,2.7,40,0.00,,---,0.00,VWS V14.01,2013-10-20 11:30:00,
2013-10-20 07:35:00,36.0,14.0,29.74,WSW,247,0.0,0.0,40,0.00,,---,0.00,VWS V14.01,2013-10-20 11:35:00,
2013-10-20 07:40:00,36.0,14.0,29.74,West,270,0.0,0.0,40,0.00,,---,0.00,VWS V14.01,2013-10-20 11:40:00,
2013-10-20 07:45:00,35.8,13.8,29.74,SW,231,0.0,0.0,40,0.00,,---,0.00,VWS V14.01,2013-10-20 11:45:00,
2013-10-20 07:50:00,35.8,13.8,29.74,SW,221,0.0,0.0,40,0.00,,---,0.00,VWS V14.01,2013-10-20 11:50:00,
2013-10-20 07:55:00,35.8,13.8,29.74,WSW,240,0.0,0.0,40,0.00,,---,0.00,VWS V14.01,2013-10-20 11:55:00,
2013-10-20 08:00:00,35.8,13.8,29.77,WSW,256,0.0,0.0,40,0.00,,---,0.00,VWS V14.01,2013-10-20 12:00:00,
2013-10-20 08:05:00,35.8,13.8,29.77,SSW,208,0.0,0.0,40,0.00,,---,0.00,VWS V14.01,2013-10-20 12:05:00,
2013-10-20 08:10:00,35.8,13.8,29.77,SW,220,0.0,0.0,40,0.00,,---,0.00,VWS V14.01,2013-10-20 12:10:00,
2013-10-20 08:15:00,35.8,13.8,29.77,NW,326,0.0,0.0,40,0.00,,---,0.00,VWS V14.01,2013-10-20 12:15:00,
2013-10-20 08:20:00,35.8,13.8,29.77,NW,310,0.0,0.0,40,0.00,,---,0.00,VWS V14.01,2013-10-20 12:20:00,
2013-10-20 08:25:00,35.8,13.8,29.77,West,259,0.0,0.0,40,0.00,,---,0.00,VWS V14.01,2013-10-20 12:25:00,
2013-10-20 08:30:00,35.8,13.8,29.77,WSW,238,0.0,0.0,40,0.00,,---,0.00,VWS V14.01,2013-10-20 12:30:00,
2013-10-20 08:35:00,36.0,14.0,29.77,WSW,238,0.0,0.0,40,0.00,,---,0.00,VWS V14.01,2013-10-20 12:35:00,
2013-10-20 08:40:00,36.0,14.0,29.77,WNW,282,0.0,2.7,40,0.00,,---,0.00,VWS V14.01,2013-10-20 12:40:00,
2013-10-20 08:45:00,36.1,14.2,29.77,NNE,18,0.0,3.1,40,0.00,,---,0.00,VWS V14.01,2013-10-20 12:45:00,
2013-10-20 08:50:00,36.1,14.2,29.77,WSW,244,0.0,0.0,40,0.00,,---,0.00,VWS V14.01,2013-10-20 12:50:00,
2013-10-20 08:55:00,36.3,14.3,29.77,SW,218,0.0,0.0,40,0.00,,---,0.00,VWS V14.01,2013-10-20 12:55:00,
2013-10-20 09:00:00,36.3,14.3,29.77,West,268,0.0,0.0,40,0.00,,---,0.00,VWS V14.01,2013-10-20 13:00:00,
2013-10-20 09:05:00,36.7,14.6,29.77,West,264,0.0,0.0,40,0.00,,---,0.00,VWS V14.01,2013-10-20 13:05:00,
2013-10-20 09:10:00,36.7,14.6,29.77,WSW,244,0.0,0.0,40,0.00,,---,0.00,VWS V14.01,2013-10-20 13:10:00,
2013-10-20 09:15:00,36.9,14.8,29.77,WSW,240,0.0,0.0,40,0.00,,---,0.00,VWS V14.01,2013-10-20 13:15:00,
2013-10-20 09:20:00,37.0,15.0,29.77,West,268,0.0,0.0,40,0.00,,---,0.00,VWS V14.01,2013-10-20 13:20:00,
2013-10-20 09:25:00,37.4,15.3,29.77,WSW,254,0.0,0.0,40,0.00,,---,0.00,VWS V14.01,2013-10-20 13:25:00,
2013-10-20 09:30:00,37.4,15.3,29.80,NW,310,4.0,4.0,40,0.00,,---,0.00,VWS V14.01,2013-10-20 13:30:00,
2013-10-20 09:35:00,37.6,14.9,29.80,South,181,0.0,0.0,39,0.00,,---,0.00,VWS V14.01,2013-10-20 13:35:00,
2013-10-20 09:40:00,37.9,15.2,29.80,WSW,255,0.0,0.0,39,0.00,,---,0.00,VWS V14.01,2013-10-20 13:40:00,
2013-10-20 09:45:00,38.1,15.4,29.80,SW,226,2.7,3.6,39,0.00,,---,0.00,VWS V14.01,2013-10-20 13:45:00,
2013-10-20 09:50:00,38.5,15.7,29.80,ENE,64,0.0,0.0,39,0.00,,---,0.00,VWS V14.01,2013-10-20 13:50:00,
2013-10-20 09:55:00,38.8,16.0,29.80,SW,227,0.0,0.0,39,0.00,,---,0.00,VWS V14.01,2013-10-20 13:55:00,
2013-10-20 10:00:00,39.0,16.2,29.80,ESE,111,0.0,3.1,39,0.00,,---,0.00,VWS V14.01,2013-10-20 14:00:00,
2013-10-20 10:05:00,39.4,16.5,29.80,West,269,0.0,4.0,39,0.00,,---,0.00,VWS V14.01,2013-10-20 14:05:00,
2013-10-20 10:10:00,39.9,17.0,29.80,WNW,283,0.0,0.0,39,0.00,,---,0.00,VWS V14.01,2013-10-20 14:10:00,
2013-10-20 10:15:00,39.9,17.0,29.80,NNE,20,0.0,0.0,39,0.00,,---,0.00,VWS V14.01,2013-10-20 14:15:00,
2013-10-20 10:20:00,40.3,17.3,29.80,SSW,209,2.2,4.0,39,0.00,,---,0.00,VWS V14.01,2013-10-20 14:20:00,
2013-10-20 10:25:00,41.0,18.0,29.80,West,278,0.0,4.0,39,0.00,,---,0.00,VWS V14.01,2013-10-20 14:25:00,
2013-10-20 10:30:00,41.5,18.4,29.80,WSW,250,0.0,2.2,39,0.00,,---,0.00,VWS V14.01,2013-10-20 14:30:00,
2013-10-20 10:35:00,41.9,18.8,29.80,SW,223,2.2,5.8,39,0.00,,---,0.00,VWS V14.01,2013-10-20 14:35:00,
2013-10-20 10:40:00,42.4,19.2,29.80,West,260,2.7,4.9,39,0.00,,---,0.00,VWS V14.01,2013-10-20 14:40:00,
2013-10-20 10:45:00,42.8,19.0,29.80,West,262,2.7,3.6,38,0.00,,---,0.00,VWS V14.01,2013-10-20 14:45:00,
2013-10-20 10:50:00,43.0,19.1,29.80,SW,225,2.2,5.4,38,0.00,,---,0.00,VWS V14.01,2013-10-20 14:50:00,
2013-10-20 10:55:00,43.7,19.8,29.80,SW,234,4.9,4.9,38,0.00,,---,0.00,VWS V14.01,2013-10-20 14:55:00,
2013-10-20 11:00:00,43.9,19.9,29.80,WSW,249,2.7,3.6,38,0.00,,---,0.00,VWS V14.01,2013-10-20 15:00:00,
2013-10-20 11:05:00,44.2,20.3,29.80,NNE,28,5.4,5.4,38,0.00,,---,0.00,VWS V14.01,2013-10-20 15:05:00,
2013-10-20 11:10:00,44.8,20.7,29.80,West,263,0.0,0.0,38,0.00,,---,0.00,VWS V14.01,2013-10-20 15:10:00,
2013-10-20 11:15:00,45.1,21.1,29.80,WSW,246,3.1,3.1,38,0.00,,---,0.00,VWS V14.01,2013-10-20 15:15:00,
2013-10-20 11:20:00,45.3,21.2,29.80,WSW,245,2.7,4.9,38,0.00,,---,0.00,VWS V14.01,2013-10-20 15:20:00,
2013-10-20 11:25:00,45.7,21.5,29.80,SW,228,0.0,4.0,38,0.00,,---,0.00,VWS V14.01,2013-10-20 15:25:00,
2013-10-20 11:30:00,46.0,21.9,29.80,WNW,287,2.7,3.6,38,0.00,,---,0.00,VWS V14.01,2013-10-20 15:30:00,
2013-10-20 11:35:00,46.4,21.6,29.80,NW,304,4.0,4.0,37,0.00,,---,0.00,VWS V14.01,2013-10-20 15:35:00,
2013-10-20 11:40:00,46.4,21.6,29.80,NW,311,2.7,3.1,37,0.00,,---,0.00,VWS V14.01,2013-10-20 15:40:00,
2013-10-20 11:45:00,46.6,21.7,29.80,SW,219,4.0,6.3,37,0.00,,---,0.00,VWS V14.01,2013-10-20 15:45:00,
2013-10-20 11:50:00,46.4,21.6,29.80,West,271,4.0,4.0,37,0.00,,---,0.00,VWS V14.01,2013-10-20 15:50:00,
2013-10-20 11:55:00,46.8,21.9,29.80,NNW,342,5.4,5.4,37,0.00,,---,0.00,VWS V14.01,2013-10-20 15:55:00,
2013-10-20 12:00:00,46.8,21.9,29.80,WNW,290,2.2,3.1,37,0.00,,---,0.00,VWS V14.01,2013-10-20 16:00:00,
2013-10-20 12:05:00,47.1,22.2,29.80,WNW,285,3.6,3.6,37,0.00,,---,0.00,VWS V14.01,2013-10-20 16:05:00,
2013-10-20 12:10:00,47.3,22.4,29.80,WSW,257,2.7,3.1,37,0.00,,---,0.00,VWS V14.01,2013-10-20 16:10:00,
2013-10-20 12:15:00,47.7,22.7,29.83,SW,233,0.0,3.1,37,0.00,,---,0.00,VWS V14.01,2013-10-20 16:15:00,
2013-10-20 12:20:00,47.8,22.9,29.83,SW,218,4.0,4.9,37,0.00,,---,0.00,VWS V14.01,2013-10-20 16:20:00,
2013-10-20 12:25:00,47.7,22.7,29.83,SW,219,3.6,6.3,37,0.00,,---,0.00,VWS V14.01,2013-10-20 16:25:00,
2013-10-20 12:30:00,47.7,22.7,29.83,SW,223,2.7,3.6,37,0.00,,---,0.00,VWS V14.01,2013-10-20 16:30:00,
2013-10-20 12:35:00,47.3,22.4,29.83,SW,218,3.1,4.9,37,0.00,,---,0.00,VWS V14.01,2013-10-20 16:35:00,
2013-10-20 12:36:00,47.5,22.5,29.83,SW,223,4.0,4.0,37,0.00,,---,0.00,VWS V14.01,2013-10-20 16:36:00,
2013-10-20 12:41:00,46.8,21.9,29.83,East,91,0.0,0.0,37,0.00,,---,0.00,VWS V14.01,2013-10-20 16:41:00,
2013-10-20 12:46:00,47.1,22.2,29.83,NNW,327,3.1,4.0,37,0.00,,---,0.00,VWS V14.01,2013-10-20 16:46:00,
2013-10-20 12:51:00,47.7,22.7,29.83,WSW,251,4.9,4.9,37,0.00,,---,0.00,VWS V14.01,2013-10-20 16:51:00,
2013-10-20 12:56:00,48.6,23.5,29.83,North,1,2.7,2.7,37,0.00,,---,0.00,VWS V14.01,2013-10-20 16:56:00,
2013-10-20 13:01:00,48.7,23.6,29.80,SE,129,5.8,5.8,37,0.00,,---,0.00,VWS V14.01,2013-10-20 17:01:00,
2013-10-20 13:06:00,48.7,23.6,29.80,SSE,165,0.0,0.0,37,0.00,,---,0.00,VWS V14.01,2013-10-20 17:06:00,
2013-10-20 13:11:00,48.4,23.3,29.80,NNE,21,0.0,0.0,37,0.00,,---,0.00,VWS V14.01,2013-10-20 17:11:00,
2013-10-20 13:16:00,48.9,23.8,29.80,SE,140,4.9,4.9,37,0.00,,---,0.00,VWS V14.01,2013-10-20 17:16:00,
2013-10-20 13:21:00,49.5,24.3,29.80,SW,226,2.7,4.0,37,0.00,,---,0.00,VWS V14.01,2013-10-20 17:21:00,
2013-10-20 13:26:00,49.6,24.5,29.80,West,262,4.0,4.9,37,0.00,,---,0.00,VWS V14.01,2013-10-20 17:26:00,
2013-10-20 13:31:00,50.0,24.1,29.80,NNE,27,0.0,3.6,36,0.00,,---,0.00,VWS V14.01,2013-10-20 17:31:00,
2013-10-20 13:36:00,49.8,24.6,29.80,SW,217,3.6,3.6,37,0.00,,---,0.00,VWS V14.01,2013-10-20 17:36:00,
2013-10-20 13:41:00,50.0,24.1,29.80,NW,310,2.7,5.8,36,0.00,,---,0.00,VWS V14.01,2013-10-20 17:41:00,
2013-10-20 13:46:00,50.7,24.8,29.80,WNW,283,3.6,3.6,36,0.00,,---,0.00,VWS V14.01,2013-10-20 17:46:00,
2013-10-20 13:51:00,50.9,24.9,29.80,West,272,3.1,3.1,36,0.00,,---,0.00,VWS V14.01,2013-10-20 17:51:00,
2013-10-20 13:56:00,50.9,24.9,29.80,ENE,77,3.6,3.6,36,0.00,,---,0.00,VWS V14.01,2013-10-20 17:56:00,
2013-10-20 14:01:00,51.4,25.4,29.80,WNW,294,0.0,0.0,36,0.00,,---,0.00,VWS V14.01,2013-10-20 18:01:00,
2013-10-20 14:06:00,51.8,25.7,29.80,SSW,204,2.7,2.7,36,0.00,,---,0.00,VWS V14.01,2013-10-20 18:06:00,
2013-10-20 14:11:00,52.5,26.4,29.80,South,189,4.0,4.0,36,0.00,,---,0.00,VWS V14.01,2013-10-20 18:11:00,
2013-10-20 14:16:00,52.9,26.7,29.80,SW,214,2.7,4.9,36,0.00,,---,0.00,VWS V14.01,2013-10-20 18:16:00,
2013-10-20 14:21:00,53.2,27.0,29.80,SE,136,0.0,3.1,36,0.00,,---,0.00,VWS V14.01,2013-10-20 18:21:00,
2013-10-20 14:26:00,54.0,27.6,29.80,SW,235,6.3,6.3,36,0.00,,---,0.00,VWS V14.01,2013-10-20 18:26:00,
2013-10-20 14:31:00,53.6,27.3,29.80,WSW,245,2.7,2.7,36,0.00,,---,0.00,VWS V14.01,2013-10-20 18:31:00,
2013-10-20 14:36:00,53.8,27.5,29.80,WNW,287,2.2,3.6,36,0.00,,---,0.00,VWS V14.01,2013-10-20 18:36:00,
2013-10-20 14:41:00,54.9,28.4,29.80,NNE,24,4.9,4.9,36,0.00,,---,0.00,VWS V14.01,2013-10-20 18:41:00,
2013-10-20 14:46:00,55.4,28.2,29.80,West,263,4.0,4.0,35,0.00,,---,0.00,VWS V14.01,2013-10-20 18:46:00,
2013-10-20 14:51:00,54.7,28.3,29.80,SSW,213,0.0,4.0,36,0.00,,---,0.00,VWS V14.01,2013-10-20 18:51:00,
2013-10-20 14:56:00,54.3,28.0,29.80,WSW,245,2.7,2.7,36,0.00,,---,0.00,VWS V14.01,2013-10-20 18:56:00,
2013-10-20 15:01:00,55.2,28.8,29.80,NNW,341,2.7,4.0,36,0.00,,---,0.00,VWS V14.01,2013-10-20 19:01:00,
2013-10-20 15:06:00,55.0,28.6,29.80,WNW,298,2.2,5.8,36,0.00,,---,0.00,VWS V14.01,2013-10-20 19:06:00,
2013-10-20 15:11:00,55.9,28.7,29.80,ENE,63,4.0,6.3,35,0.00,,---,0.00,VWS V14.01,2013-10-20 19:11:00,
2013-10-20 15:16:00,55.8,28.5,29.80,WSW,239,2.7,4.9,35,0.00,,---,0.00,VWS V14.01,2013-10-20 19:16:00,
2013-10-20 15:21:00,55.0,28.6,29.80,West,268,3.1,3.6,36,0.00,,---,0.00,VWS V14.01,2013-10-20 19:21:00,
2013-10-20 15:26:00,54.1,27.8,29.80,SSW,208,0.0,3.1,36,0.00,,---,0.00,VWS V14.01,2013-10-20 19:26:00,
2013-10-20 15:31:00,54.5,28.1,29.77,SSW,211,3.6,3.6,36,0.00,,---,0.00,VWS V14.01,2013-10-20 19:31:00,
2013-10-20 15:36:00,55.2,28.8,29.77,SW,218,0.0,0.0,36,0.00,,---,0.00,VWS V14.01,2013-10-20 19:36:00,
2013-10-20 15:41:00,54.9,28.4,29.77,WSW,237,3.1,3.6,36,0.00,,---,0.00,VWS V14.01,2013-10-20 19:41:00,
2013-10-20 15:46:00,54.7,28.3,29.80,NNE,22,0.0,0.0,36,0.00,,---,0.00,VWS V14.01,2013-10-20 19:46:00,
2013-10-20 15:51:00,53.8,27.5,29.80,North,357,2.7,6.3,36,0.00,,---,0.00,VWS V14.01,2013-10-20 19:51:00,
2013-10-20 15:56:00,54.0,27.6,29.80,WSW,241,2.7,4.9,36,0.00,,---,0.00,VWS V14.01,2013-10-20 19:56:00,
2013-10-20 16:01:00,54.0,27.6,29.80,North,353,4.0,4.0,36,0.00,,---,0.00,VWS V14.01,2013-10-20 20:01:00,
2013-10-20 16:06:00,54.0,27.6,29.80,WSW,237,2.2,3.6,36,0.00,,---,0.00,VWS V14.01,2013-10-20 20:06:00,
2013-10-20 16:11:00,54.1,27.8,29.80,WSW,238,0.0,0.0,36,0.00,,---,0.00,VWS V14.01,2013-10-20 20:11:00,
2013-10-20 16:16:00,55.8,28.5,29.80,SW,230,2.7,5.8,35,0.00,,---,0.00,VWS V14.01,2013-10-20 20:16:00,
2013-10-20 16:21:00,55.8,28.5,29.80,NNE,30,0.0,3.1,35,0.00,,---,0.00,VWS V14.01,2013-10-20 20:21:00,
2013-10-20 16:26:00,54.9,28.4,29.80,SSW,193,3.6,4.9,36,0.00,,---,0.00,VWS V14.01,2013-10-20 20:26:00,
2013-10-20 16:31:00,53.8,27.5,29.80,WSW,237,3.1,5.4,36,0.00,,---,0.00,VWS V14.01,2013-10-20 20:31:00,
2013-10-20 16:36:00,53.8,27.5,29.80,NE,44,3.6,3.6,36,0.00,,---,0.00,VWS V14.01,2013-10-20 20:36:00,
2013-10-20 16:41:00,54.0,27.6,29.80,South,191,3.1,4.0,36,0.00,,---,0.00,VWS V14.01,2013-10-20 20:41:00,
2013-10-20 16:46:00,53.2,27.0,29.80,WSW,256,2.7,3.6,36,0.00,,---,0.00,VWS V14.01,2013-10-20 20:46:00,
2013-10-20 16:51:00,52.7,26.5,29.80,WSW,250,0.0,3.6,36,0.00,,---,0.00,VWS V14.01,2013-10-20 20:51:00,
2013-10-20 16:56:00,52.3,26.2,29.80,North,4,6.3,6.3,36,0.00,,---,0.00,VWS V14.01,2013-10-20 20:56:00,
2013-10-20 17:00:00,52.2,26.0,29.80,West,262,3.6,4.0,36,0.00,,---,0.00,VWS V14.01,2013-10-20 21:00:00,
2013-10-20 17:05:00,51.8,25.7,29.80,WSW,244,2.2,3.6,36,0.00,,---,0.00,VWS V14.01,2013-10-20 21:05:00,
2013-10-20 17:10:00,51.6,25.6,29.80,North,357,4.9,5.4,36,0.00,,---,0.00,VWS V14.01,2013-10-20 21:10:00,
2013-10-20 17:15:00,51.1,25.1,29.80,WSW,252,4.0,4.0,36,0.00,,---,0.00,VWS V14.01,2013-10-20 21:15:00,
2013-10-20 17:20:00,50.9,24.9,29.80,West,266,2.2,4.0,36,0.00,,---,0.00,VWS V14.01,2013-10-20 21:20:00,
2013-10-20 17:25:00,50.5,24.6,29.80,NE,38,2.2,4.0,36,0.00,,---,0.00,VWS V14.01,2013-10-20 21:25:00,
2013-10-20 17:30:00,50.5,24.6,29.80,East,84,2.2,2.7,36,0.00,,---,0.00,VWS V14.01,2013-10-20 21:30:00,
2013-10-20 17:35:00,50.4,24.4,29.80,NNE,14,3.6,6.3,36,0.00,,---,0.00,VWS V14.01,2013-10-20 21:35:00,
2013-10-20 17:40:00,50.2,24.3,29.80,NE,47,0.0,0.0,36,0.00,,---,0.00,VWS V14.01,2013-10-20 21:40:00,
2013-10-20 17:45:00,49.8,24.6,29.80,WNW,283,0.0,0.0,37,0.00,,---,0.00,VWS V14.01,2013-10-20 21:45:00,
2013-10-20 17:50:00,49.6,24.5,29.80,NE,44,0.0,0.0,37,0.00,,---,0.00,VWS V14.01,2013-10-20 21:50:00,
2013-10-20 17:55:00,49.5,24.3,29.80,NE,39,0.0,0.0,37,0.00,,---,0.00,VWS V14.01,2013-10-20 21:55:00,
2013-10-20 18:00:00,48.9,23.8,29.80,NE,39,0.0,0.0,37,0.00,,---,0.00,VWS V14.01,2013-10-20 22:00:00,
2013-10-20 18:05:00,48.7,23.6,29.80,NW,311,0.0,0.0,37,0.00,,---,0.00,VWS V14.01,2013-10-20 22:05:00,
2013-10-20 18:10:00,48.4,23.3,29.80,West,277,0.0,0.0,37,0.00,,---,0.00,VWS V14.01,2013-10-20 22:10:00,
2013-10-20 18:15:00,48.0,23.0,29.80,WSW,243,0.0,0.0,37,0.00,,---,0.00,VWS V14.01,2013-10-20 22:15:00,
2013-10-20 18:20:00,47.7,22.7,29.80,SW,219,2.2,3.1,37,0.00,,---,0.00,VWS V14.01,2013-10-20 22:20:00,
2013-10-20 18:25:00,47.3,22.4,29.80,SW,219,0.0,0.0,37,0.00,,---,0.00,VWS V14.01,2013-10-20 22:25:00,
2013-10-20 18:30:00,47.1,22.2,29.80,SW,219,0.0,0.0,37,0.00,,---,0.00,VWS V14.01,2013-10-20 22:30:00,
2013-10-20 18:35:00,46.8,21.9,29.80,SW,219,0.0,0.0,37,0.00,,---,0.00,VWS V14.01,2013-10-20 22:35:00,
2013-10-20 18:40:00,46.2,22.0,29.80,SW,219,0.0,0.0,38,0.00,,---,0.00,VWS V14.01,2013-10-20 22:40:00,
2013-10-20 18:45:00,45.9,21.7,29.80,SW,219,0.0,0.0,38,0.00,,---,0.00,VWS V14.01,2013-10-20 22:45:00,
2013-10-20 18:50:00,45.3,21.2,29.80,SW,219,0.0,0.0,38,0.00,,---,0.00,VWS V14.01,2013-10-20 22:50:00,
2013-10-20 18:55:00,44.6,20.6,29.80,SW,219,0.0,0.0,38,0.00,,---,0.00,VWS V14.01,2013-10-20 22:55:00,
2013-10-20 19:00:00,43.9,19.9,29.80,SW,219,0.0,0.0,38,0.00,,---,0.00,VWS V14.01,2013-10-20 23:00:00,
2013-10-20 19:05:00,43.3,19.5,29.80,SW,219,0.0,0.0,38,0.00,,---,0.00,VWS V14.01,2013-10-20 23:05:00,
2013-10-20 19:10:00,43.0,19.1,29.80,SW,219,0.0,0.0,38,0.00,,---,0.00,VWS V14.01,2013-10-20 23:10:00,
2013-10-20 19:15:00,42.6,18.8,29.80,SW,219,0.0,0.0,38,0.00,,---,0.00,VWS V14.01,2013-10-20 23:15:00,
2013-10-20 19:20:00,42.4,18.6,29.80,SW,219,0.0,0.0,38,0.00,,---,0.00,VWS V14.01,2013-10-20 23:20:00,
2013-10-20 19:25:00,42.1,18.3,29.80,SW,219,0.0,0.0,38,0.00,,---,0.00,VWS V14.01,2013-10-20 23:25:00,
2013-10-20 19:30:00,42.1,18.3,29.80,SW,219,0.0,0.0,38,0.00,,---,0.00,VWS V14.01,2013-10-20 23:30:00,
2013-10-20 19:35:00,41.9,18.2,29.80,SW,219,0.0,0.0,38,0.00,,---,0.00,VWS V14.01,2013-10-20 23:35:00,
2013-10-20 19:40:00,41.7,18.0,29.80,SW,219,0.0,0.0,38,0.00,,---,0.00,VWS V14.01,2013-10-20 23:40:00,
2013-10-20 19:45:00,41.5,17.8,29.83,SW,219,0.0,0.0,38,0.00,,---,0.00,VWS V14.01,2013-10-20 23:45:00,
2013-10-20 19:50:00,41.7,18.0,29.83,SW,219,0.0,0.0,38,0.00,,---,0.00,VWS V14.01,2013-10-20 23:50:00,
2013-10-20 19:55:00,41.5,17.8,29.83,SW,219,0.0,0.0,38,0.00,,---,0.00,VWS V14.01,2013-10-20 23:55:00,
2013-10-20 20:00:00,41.5,17.8,29.83,SW,219,0.0,0.0,38,0.00,,---,0.00,VWS V14.01,2013-10-21 00:00:00,
2013-10-20 20:05:00,41.5,17.8,29.83,SW,219,0.0,0.0,38,0.00,,---,0.00,VWS V14.01,2013-10-21 00:05:00,
2013-10-20 20:10:00,41.4,17.7,29.83,SW,219,0.0,0.0,38,0.00,,---,0.00,VWS V14.01,2013-10-21 00:10:00,
2013-10-20 20:15:00,41.4,17.7,29.83,SW,219,0.0,0.0,38,0.00,,---,0.00,VWS V14.01,2013-10-21 00:15:00,
2013-10-20 20:20:00,41.2,17.5,29.83,SW,219,0.0,0.0,38,0.00,,---,0.00,VWS V14.01,2013-10-21 00:20:00,
2013-10-20 20:25:00,41.4,17.7,29.83,SW,219,0.0,0.0,38,0.00,,---,0.00,VWS V14.01,2013-10-21 00:25:00,
2013-10-20 20:30:00,41.2,17.5,29.83,SW,219,0.0,0.0,38,0.00,,---,0.00,VWS V14.01,2013-10-21 00:30:00,
2013-10-20 20:35:00,41.2,17.5,29.83,SW,219,0.0,0.0,38,0.00,,---,0.00,VWS V14.01,2013-10-21 00:35:00,
2013-10-20 20:40:00,41.0,17.4,29.83,SW,219,0.0,0.0,38,0.00,,---,0.00,VWS V14.01,2013-10-21 00:40:00,
2013-10-20 20:45:00,41.0,17.4,29.83,SW,219,0.0,0.0,38,0.00,,---,0.00,VWS V14.01,2013-10-21 00:45:00,
2013-10-20 20:50:00,41.0,18.0,29.83,SW,219,0.0,0.0,39,0.00,,---,0.00,VWS V14.01,2013-10-21 00:50:00,
2013-10-20 20:55:00,41.0,18.0,29.83,SW,219,0.0,0.0,39,0.00,,---,0.00,VWS V14.01,2013-10-21 00:55:00,
2013-10-20 21:00:00,40.6,17.6,29.83,SW,219,0.0,0.0,39,0.00,,---,0.00,VWS V14.01,2013-10-21 01:00:00,
2013-10-20 21:05:00,40.6,17.6,29.83,SW,219,0.0,0.0,39,0.00,,---,0.00,VWS V14.01,2013-10-21 01:05:00,
2013-10-20 21:10:00,40.5,17.5,29.83,SW,219,0.0,0.0,39,0.00,,---,0.00,VWS V14.01,2013-10-21 01:10:00,
2013-10-20 21:15:00,40.5,17.5,29.83,SW,219,0.0,0.0,39,0.00,,---,0.00,VWS V14.01,2013-10-21 01:15:00,
2013-10-20 21:20:00,40.3,17.3,29.83,SW,219,0.0,0.0,39,0.00,,---,0.00,VWS V14.01,2013-10-21 01:20:00,
2013-10-20 21:25:00,40.3,17.3,29.83,SW,219,0.0,0.0,39,0.00,,---,0.00,VWS V14.01,2013-10-21 01:25:00,
2013-10-20 21:30:00,40.3,17.3,29.83,SW,219,0.0,0.0,39,0.00,,---,0.00,VWS V14.01,2013-10-21 01:30:00,
2013-10-20 21:35:00,40.3,17.3,29.83,SW,219,0.0,0.0,39,0.00,,---,0.00,VWS V14.01,2013-10-21 01:35:00,
2013-10-20 21:40:00,40.3,17.3,29.83,SW,219,0.0,0.0,39,0.00,,---,0.00,VWS V14.01,2013-10-21 01:40:00,
2013-10-20 21:45:00,40.1,17.1,29.83,SW,219,0.0,0.0,39,0.00,,---,0.00,VWS V14.01,2013-10-21 01:45:00,
2013-10-20 21:50:00,39.9,17.0,29.83,SW,219,0.0,0.0,39,0.00,,---,0.00,VWS V14.01,2013-10-21 01:50:00,
2013-10-20 21:55:00,39.9,17.0,29.83,SW,219,0.0,0.0,39,0.00,,---,0.00,VWS V14.01,2013-10-21 01:55:00,
2013-10-20 22:00:00,39.9,17.0,29.83,SW,219,0.0,0.0,39,0.00,,---,0.00,VWS V14.01,2013-10-21 02:00:00,
2013-10-20 22:05:00,39.9,17.0,29.83,SSW,208,0.0,0.0,39,0.00,,---,0.00,VWS V14.01,2013-10-21 02:05:00,
2013-10-20 22:10:00,39.9,17.0,29.83,SSW,208,0.0,0.0,39,0.00,,---,0.00,VWS V14.01,2013-10-21 02:10:00,
2013-10-20 22:15:00,39.9,17.0,29.83,SSW,208,0.0,0.0,39,0.00,,---,0.00,VWS V14.01,2013-10-21 02:15:00,
2013-10-20 22:20:00,39.9,17.0,29.83,SSW,208,0.0,0.0,39,0.00,,---,0.00,VWS V14.01,2013-10-21 02:20:00,
2013-10-20 22:25:00,39.9,17.0,29.83,SSW,208,0.0,0.0,39,0.00,,---,0.00,VWS V14.01,2013-10-21 02:25:00,
2013-10-20 22:30:00,40.1,17.1,29.83,SSW,208,0.0,0.0,39,0.00,,---,0.00,VWS V14.01,2013-10-21 02:30:00,
2013-10-20 22:35:00,40.1,17.1,29.83,SSW,208,0.0,0.0,39,0.00,,---,0.00,VWS V14.01,2013-10-21 02:35:00,
2013-10-20 22:40:00,40.1,17.1,29.83,SSW,208,0.0,0.0,39,0.00,,---,0.00,VWS V14.01,2013-10-21 02:40:00,
2013-10-20 22:45:00,40.1,17.1,29.83,SSW,208,0.0,0.0,39,0.00,,---,0.00,VWS V14.01,2013-10-21 02:45:00,
2013-10-20 22:50:00,39.9,17.0,29.83,SSW,208,0.0,0.0,39,0.00,,---,0.00,VWS V14.01,2013-10-21 02:50:00,
2013-10-20 22:55:00,40.1,17.1,29.83,SSW,208,0.0,0.0,39,0.00,,---,0.00,VWS V14.01,2013-10-21 02:55:00,
2013-10-20 23:00:00,40.3,17.3,29.83,SSW,208,0.0,0.0,39,0.00,,---,0.00,VWS V14.01,2013-10-21 03:00:00,
2013-10-20 23:05:00,40.3,17.3,29.83,SSW,208,0.0,0.0,39,0.00,,---,0.00,VWS V14.01,2013-10-21 03:05:00,
2013-10-20 23:10:00,40.3,17.3,29.83,SSW,208,0.0,0.0,39,0.00,,---,0.00,VWS V14.01,2013-10-21 03:10:00,
2013-10-20 23:15:00,40.3,17.3,29.83,SSW,208,0.0,0.0,39,0.00,,---,0.00,VWS V14.01,2013-10-21 03:15:00,
2013-10-20 23:20:00,40.3,17.3,29.83,SSW,208,0.0,0.0,39,0.00,,---,0.00,VWS V14.01,2013-10-21 03:20:00,
2013-10-20 23:25:00,40.3,17.3,29.83,SSW,208,0.0,0.0,39,0.00,,---,0.00,VWS V14.01,2013-10-21 03:25:00,
2013-10-20 23:30:00,40.3,17.3,29.83,SSW,208,0.0,0.0,39,0.00,,---,0.00,VWS V14.01,2013-10-21 03:30:00,
2013-10-20 23:35:00,40.3,17.3,29.83,SE,135,0.0,0.0,39,0.00,,---,0.00,VWS V14.01,2013-10-21 03:35:00,
2013-10-20 23:40:00,40.5,17.5,29.83,SW,223,0.0,0.0,39,0.00,,---,0.00,VWS V14.01,2013-10-21 03:40:00,
2013-10-20 23:45:00,40.5,17.5,29.83,South,184,0.0,0.0,39,0.00,,---,0.00,VWS V14.01,2013-10-21 03:45:00,
2013-10-20 23:50:00,40.5,17.5,29.83,South,184,0.0,0.0,39,0.00,,---,0.00,VWS V14.01,2013-10-21 03:50:00,
2013-10-20 23:55:00,40.5,17.5,29.83,South,184,0.0,0.0,39,0.00,,---,0.00,VWS V14.01,2013-10-21 03:55:00,